Date String (YYYY-MM-DD hh:mm:ss) UTC,Instrument flags,Ambient pressure (hPa),Sample flow (lpm),Bypass flow (lpm),Sample temperature (°C),Ambient temperature (°C),ASC tube jacket temperature (°C),LED temperature (°C),Box temperature (°C),Sample RH (%),Span deviation,Mass concentration (μg/m³),Mass concentration (μg/m³),Mass concentration (μg/m³)
DateTimeUTC,F1_M11,P_M11,Q1_M11,Q2_M11,T1_M11,T2_M11,T3_M11,T4_M11,T5_M11,U1_M11,ZSPAN_M11,X0_M11,X2_M11,X1_M11
2021-10-20 15:00:00,,0831.2,4.99,0.00,22.8,22.1,00.0,32.0,24.6,20.4,0000.0,0006.17,0003.75,0003.45
2021-10-20 15:01:00,,0831.2,5.01,0.00,22.8,22.0,00.0,31.9,24.6,20.4,0000.0,0006.01,0003.69,0003.40
2021-10-20 15:02:00,,0831.2,5.01,0.00,22.8,22.1,00.0,31.9,24.6,20.7,0000.0,0005.88,0003.65,0003.36
2021-10-20 15:03:00,,0831.2,5.00,0.00,22.8,22.0,00.0,31.9,24.6,20.6,0000.0,0006.49,0003.59,0003.31
2021-10-20 15:04:00,,0831.2,5.00,0.00,22.8,22.0,00.0,31.9,24.5,20.6,0000.0,0006.72,0003.57,0003.31
2021-10-20 15:05:00,,0831.2,5.00,0.00,22.8,22.0,00.0,31.9,24.6,20.7,0000.0,0006.46,0003.52,0003.27
2021-10-20 15:06:00,,0831.2,5.00,0.00,22.8,22.0,00.0,31.9,24.5,20.7,0000.0,0006.71,0003.52,0003.25
2021-10-20 15:07:00,,0831.2,5.02,0.00,22.7,22.0,00.0,31.9,24.5,20.7,0000.0,0006.86,0003.51,0003.25
2021-10-20 15:08:00,,0831.2,4.99,0.00,22.7,22.0,00.0,31.9,24.5,20.8,0000.0,0007.04,0003.55,0003.28
2021-10-20 15:09:00,,0831.2,5.01,0.00,22.7,22.0,00.0,31.9,24.5,20.9,0000.0,0007.08,0003.60,0003.33
2021-10-20 15:10:00,,0831.2,4.99,0.00,22.7,22.0,00.0,31.9,24.6,21.0,0000.0,0007.09,0003.61,0003.35
2021-10-20 15:11:00,,0831.2,5.01,0.00,22.7,22.0,00.0,31.9,24.5,21.2,0000.0,0007.26,0003.67,0003.39
2021-10-20 15:12:00,,0831.2,5.00,0.00,22.8,22.1,00.0,31.9,24.6,21.0,0000.0,0007.71,0003.67,0003.41
2021-10-20 15:13:00,,0831.2,5.02,0.00,22.7,22.1,00.0,31.9,24.6,20.7,0000.0,0007.67,0003.66,0003.40
2021-10-20 15:14:00,,0831.2,5.00,0.00,22.7,22.0,00.0,31.9,24.5,20.6,0000.0,0006.90,0003.65,0003.40
2021-10-20 15:15:00,,0831.2,4.98,0.00,22.7,22.0,00.0,31.9,24.5,20.6,0000.0,0006.60,0003.66,0003.40
2021-10-20 15:16:00,,0831.2,5.00,0.00,22.7,22.0,00.0,31.9,24.5,20.6,0000.0,0006.57,0003.67,0003.40
2021-10-20 15:17:00,,0831.1,5.00,0.00,22.7,22.0,00.0,31.9,24.5,20.6,0000.0,0006.01,0003.64,0003.40
2021-10-20 15:18:00,,0831.0,4.99,0.00,22.7,22.0,00.0,31.8,24.5,20.7,0000.0,0005.72,0003.64,0003.39
2021-10-20 15:19:00,,0831.0,5.01,0.00,22.7,22.0,00.0,31.9,24.5,20.9,0000.0,0005.72,0003.65,0003.37
2021-10-20 15:20:00,,0831.0,5.00,0.00,22.7,22.0,00.0,31.8,24.5,21.0,0000.0,0005.66,0003.62,0003.35
2021-10-20 15:21:00,,0831.0,4.99,0.00,22.8,22.1,00.0,31.9,24.6,20.7,0000.0,0005.46,0003.58,0003.31
2021-10-20 15:22:00,,0831.0,5.00,0.00,22.8,22.1,00.0,31.9,24.6,20.5,0000.0,0005.50,0003.57,0003.31
2021-10-20 15:23:00,,0831.0,5.01,0.00,22.7,22.1,00.0,31.9,24.6,20.5,0000.0,0005.02,0003.59,0003.30
2021-10-20 15:24:00,,0831.0,4.99,0.00,22.7,22.1,00.0,31.9,24.5,20.7,0000.0,0005.08,0003.59,0003.30
2021-10-20 15:25:00,,0831.0,5.01,0.00,22.8,22.1,00.0,31.9,24.6,20.7,0000.0,0005.19,0003.61,0003.30
2021-10-20 15:26:00,,0831.1,5.00,0.00,22.8,22.1,00.0,31.9,24.6,20.7,0000.0,0005.21,0003.62,0003.31
2021-10-20 15:27:00,,0831.1,5.00,0.00,22.8,22.1,00.0,31.9,24.6,20.6,0000.0,0005.37,0003.65,0003.32
2021-10-20 15:28:00,,0831.1,5.00,0.00,22.8,22.1,00.0,31.9,24.7,20.6,0000.0,0005.42,0003.68,0003.36
2021-10-20 15:29:00,,0831.0,5.01,0.00,22.8,22.1,00.0,31.9,24.7,20.5,0000.0,0005.45,0003.75,0003.44
2021-10-20 15:30:00,,0831.1,4.99,0.00,22.8,22.1,00.0,31.9,24.6,20.7,0000.0,0005.43,0003.79,0003.49
2021-10-20 15:31:00,,0831.1,4.99,0.00,22.8,22.1,00.0,31.9,24.6,20.5,0000.0,0005.67,0003.89,0003.59
2021-10-20 15:32:00,,0831.1,5.01,0.00,22.8,22.1,00.0,31.9,24.6,20.6,0000.0,0005.91,0004.01,0003.69
2021-10-20 15:33:00,,0831.1,5.00,0.00,22.8,22.1,00.0,31.9,24.6,20.6,0000.0,0005.88,0004.06,0003.76
2021-10-20 15:34:00,,0831.0,4.99,0.00,22.8,22.1,00.0,31.9,24.7,20.7,0000.0,0005.86,0004.14,0003.83
2021-10-20 15:35:00,,0831.0,5.00,0.00,22.8,22.2,00.0,31.9,24.6,20.7,0000.0,0006.54,0004.21,0003.91
2021-10-20 15:36:00,,0831.0,5.00,0.00,22.8,22.2,00.0,31.9,24.7,20.7,0000.0,0006.92,0004.29,0003.99
2021-10-20 15:37:00,,0831.0,5.01,0.00,22.9,22.2,00.0,31.9,24.7,20.8,0000.0,0007.16,0004.35,0004.04
2021-10-20 15:38:00,,0831.1,5.00,0.00,22.9,22.2,00.0,31.9,24.7,20.8,0000.0,0007.31,0004.41,0004.11
2021-10-20 15:39:00,,0831.2,4.99,0.00,22.9,22.3,00.0,31.9,24.7,20.9,0000.0,0007.75,0004.43,0004.14
2021-10-20 15:40:00,,0831.2,5.01,0.00,22.9,22.3,00.0,31.9,24.8,20.8,0000.0,0007.76,0004.41,0004.12
2021-10-20 15:41:00,,0831.1,4.99,0.00,22.9,22.3,00.0,31.9,24.8,20.7,0000.0,0007.73,0004.40,0004.14
2021-10-20 15:42:00,,0831.1,5.00,0.00,22.9,22.3,00.0,32.0,24.8,20.8,0000.0,0007.67,0004.36,0004.11
2021-10-20 15:43:00,,0831.0,5.00,0.00,22.9,22.3,00.0,32.0,24.8,20.7,0000.0,0007.62,0004.33,0004.09
2021-10-20 15:44:00,,0831.0,5.00,0.00,22.9,22.3,00.0,32.0,24.8,20.7,0000.0,0007.65,0004.34,0004.09
2021-10-20 15:45:00,,0831.0,5.01,0.00,23.0,22.3,00.0,32.0,24.8,20.8,0000.0,0007.58,0004.33,0004.09
2021-10-20 15:46:00,,0831.0,4.98,0.00,23.0,22.3,00.0,32.0,24.9,20.7,0000.0,0007.22,0004.37,0004.12
2021-10-20 15:47:00,,0831.1,5.01,0.00,23.0,22.4,00.0,32.0,24.9,20.7,-000.5,0007.22,0004.40,0004.15
2021-10-20 15:48:00,,0831.0,4.99,0.00,23.0,22.4,00.0,32.0,24.9,20.7,-002.0,0007.47,0004.47,0004.21
2021-10-20 15:49:00,,0831.0,5.00,0.00,23.1,22.4,00.0,32.0,24.9,20.6,-002.0,0007.52,0004.59,0004.27
2021-10-20 15:50:00,,0831.1,5.00,0.00,23.1,22.4,00.0,32.0,24.9,20.5,-000.7,0007.31,0004.70,0004.36
2021-10-20 15:51:00,,0831.1,5.00,0.00,23.1,22.4,00.0,32.1,24.9,20.5,0000.0,0007.41,0004.80,0004.44
2021-10-20 15:52:00,,0831.0,5.01,0.00,23.1,22.5,00.0,32.1,25.0,20.6,0000.0,0007.66,0004.92,0004.53
2021-10-20 15:53:00,,0831.0,4.99,0.00,23.1,22.5,00.0,32.1,25.0,20.5,0000.0,0007.81,0005.04,0004.64
2021-10-20 15:54:00,,0831.0,5.00,0.00,23.2,22.5,00.0,32.1,25.0,20.4,0000.0,0007.90,0005.13,0004.72
2021-10-20 15:55:00,,0831.0,5.00,0.00,23.1,22.5,00.0,32.1,25.0,20.5,0000.0,0007.98,0005.23,0004.81
2021-10-20 15:56:00,,0831.1,5.01,0.00,23.2,22.5,00.0,32.1,25.0,20.5,0000.0,0008.13,0005.31,0004.88
2021-10-20 15:57:00,,0831.1,5.00,0.00,23.2,22.5,00.0,32.1,25.0,20.6,0000.0,0008.27,0005.38,0004.94
2021-10-20 15:58:00,,0831.0,5.00,0.00,23.2,22.6,00.0,32.2,25.1,20.6,0000.0,0008.39,0005.48,0005.01
2021-10-20 15:59:00,,0831.0,4.99,0.00,23.2,22.6,00.0,32.2,25.1,20.3,0000.0,0008.34,0005.56,0005.09
